Time,TemperatureF,DewpointF,PressureIn,WindDirection,WindDirectionDegrees,WindSpeedMPH,WindSpeedGustMPH,Humidity,HourlyPrecipIn,Conditions,Clouds,dailyrainin,SoftwareType,DateUTC
2015-05-27 00:01:00,58.0,58.0,-100.00,South,187,3.0,4.0,100,-99.99,,,-99.99,,2015-05-27 07:01:00,
2015-05-27 00:11:00,58.0,58.0,-100.00,South,187,3.0,4.0,100,-99.99,,,-99.99,,2015-05-27 07:11:00,
2015-05-27 00:21:00,58.0,58.0,-100.00,SSW,195,3.0,4.0,100,-99.99,,,-99.99,,2015-05-27 07:21:00,
2015-05-27 00:31:00,58.0,58.0,-100.00,SSW,192,3.0,4.0,100,-99.99,,,-99.99,,2015-05-27 07:31:00,
2015-05-27 00:41:00,58.0,58.0,-100.00,SSW,194,4.0,5.0,100,-99.99,,,-99.99,,2015-05-27 07:41:00,
2015-05-27 01:02:00,58.0,58.0,-100.00,SSW,201,3.0,4.0,100,-99.99,,,-99.99,,2015-05-27 08:02:00,
2015-05-27 01:21:00,58.0,58.0,-100.00,SSW,198,4.0,5.0,100,-99.99,,,-99.99,,2015-05-27 08:21:00,
2015-05-27 01:31:00,58.0,58.0,-100.00,SSW,197,5.0,6.0,100,-99.99,,,-99.99,,2015-05-27 08:31:00,
2015-05-27 01:42:00,58.0,58.0,-100.00,SSW,192,3.0,5.0,100,-99.99,,,-99.99,,2015-05-27 08:42:00,
2015-05-27 01:51:00,58.0,58.0,-100.00,SSW,192,3.0,5.0,100,-99.99,,,-99.99,,2015-05-27 08:51:00,
2015-05-27 02:01:00,58.0,58.0,-100.00,South,191,2.0,3.0,100,-99.99,,,-99.99,,2015-05-27 09:01:00,
2015-05-27 02:11:00,58.0,58.0,-100.00,SSW,211,2.0,3.0,100,-99.99,,,-99.99,,2015-05-27 09:11:00,
2015-05-27 02:21:00,58.0,58.0,-100.00,SW,236,1.0,3.0,100,-99.99,,,-99.99,,2015-05-27 09:21:00,
2015-05-27 02:31:00,58.0,58.0,-100.00,WSW,241,2.0,3.0,100,-99.99,,,-99.99,,2015-05-27 09:31:00,
2015-05-27 02:41:00,58.0,58.0,-100.00,NNW,331,1.0,3.0,100,-99.99,,,-99.99,,2015-05-27 09:41:00,
2015-05-27 03:02:00,58.0,58.0,-100.00,North,355,2.0,3.0,100,-99.99,,,-99.99,,2015-05-27 10:02:00,
2015-05-27 03:11:00,58.0,58.0,-100.00,NNW,336,2.0,4.0,100,-99.99,,,-99.99,,2015-05-27 10:11:00,
2015-05-27 03:21:00,58.0,58.0,-100.00,NNW,328,2.0,3.0,100,-99.99,,,-99.99,,2015-05-27 10:21:00,
2015-05-27 03:31:00,58.0,58.0,-100.00,NW,315,2.0,3.0,100,-99.99,,,-99.99,,2015-05-27 10:31:00,
2015-05-27 03:41:00,58.0,58.0,-100.00,West,259,2.0,3.0,100,-99.99,,,-99.99,,2015-05-27 10:41:00,
2015-05-27 03:51:00,58.0,58.0,-100.00,West,259,2.0,3.0,100,-99.99,,,-99.99,,2015-05-27 10:51:00,
2015-05-27 06:31:00,57.0,57.0,-100.00,East,100,1.0,2.0,100,-99.99,,,-99.99,,2015-05-27 13:31:00,
2015-05-27 06:41:00,57.0,57.0,-100.00,North,-9999,0.0,2.0,100,-99.99,,,-99.99,,2015-05-27 13:41:00,
2015-05-27 07:01:00,57.0,57.0,-100.00,North,-9999,0.0,1.0,100,-99.99,,,-99.99,,2015-05-27 14:01:00,
2015-05-27 07:11:00,57.0,57.0,-100.00,North,11,3.0,7.0,100,-99.99,,,-99.99,,2015-05-27 14:11:00,
2015-05-27 07:21:00,58.0,58.0,-100.00,North,3,5.0,7.0,100,-99.99,,,-99.99,,2015-05-27 14:21:00,
2015-05-27 07:31:00,58.0,58.0,-100.00,NNW,345,3.0,7.0,100,-99.99,,,-99.99,,2015-05-27 14:31:00,
2015-05-27 07:42:00,58.0,58.0,-100.00,NNE,28,2.0,4.0,100,-99.99,,,-99.99,,2015-05-27 14:42:00,
2015-05-27 08:02:00,58.0,58.0,-100.00,ENE,75,1.0,3.0,100,-99.99,,,-99.99,,2015-05-27 15:02:00,
2015-05-27 08:11:00,59.0,59.0,-100.00,West,261,1.0,4.0,100,-99.99,,,-99.99,,2015-05-27 15:11:00,
2015-05-27 08:21:00,59.0,59.0,-100.00,WNW,303,2.0,5.0,100,-99.99,,,-99.99,,2015-05-27 15:21:00,
2015-05-27 08:31:00,59.0,59.0,-100.00,South,181,4.0,6.0,100,-99.99,,,-99.99,,2015-05-27 15:31:00,
2015-05-27 08:41:00,58.0,58.0,-100.00,SSW,192,5.0,6.0,100,-99.99,,,-99.99,,2015-05-27 15:41:00,
2015-05-27 09:02:00,59.0,59.0,-100.00,South,191,6.0,7.0,100,-99.99,,,-99.99,,2015-05-27 16:02:00,
2015-05-27 09:11:00,59.0,59.0,-100.00,South,184,6.0,9.0,100,-99.99,,,-99.99,,2015-05-27 16:11:00,
2015-05-27 09:21:00,59.0,59.0,-100.00,South,189,5.0,7.0,100,-99.99,,,-99.99,,2015-05-27 16:21:00,
2015-05-27 09:31:00,59.0,59.0,-100.00,SSW,203,5.0,7.0,100,-99.99,,,-99.99,,2015-05-27 16:31:00,
2015-05-27 09:42:00,59.0,59.0,-100.00,SSW,211,4.0,6.0,100,-99.99,,,-99.99,,2015-05-27 16:42:00,
2015-05-27 10:03:00,59.0,59.0,-100.00,SSW,205,6.0,9.0,100,-99.99,,,-99.99,,2015-05-27 17:03:00,
2015-05-27 10:11:00,59.0,59.0,-100.00,SSW,212,6.0,7.0,100,-99.99,,,-99.99,,2015-05-27 17:11:00,
2015-05-27 10:21:00,59.0,59.0,-100.00,SSW,211,6.0,8.0,100,-99.99,,,-99.99,,2015-05-27 17:21:00,
2015-05-27 10:32:00,59.0,59.0,-100.00,SSW,211,6.0,8.0,100,-99.99,,,-99.99,,2015-05-27 17:32:00,
2015-05-27 10:42:00,59.0,59.0,-100.00,SSE,166,5.0,8.0,100,-99.99,,,-99.99,,2015-05-27 17:42:00,
2015-05-27 10:51:00,59.0,59.0,-100.00,SSE,166,5.0,8.0,100,-99.99,,,-99.99,,2015-05-27 17:51:00,
2015-05-27 11:02:00,59.0,59.0,-100.00,South,170,4.0,5.0,100,-99.99,,,-99.99,,2015-05-27 18:02:00,
2015-05-27 11:11:00,59.0,59.0,-100.00,SSE,159,3.0,5.0,100,-99.99,,,-99.99,,2015-05-27 18:11:00,
2015-05-27 11:21:00,60.0,60.0,-100.00,SSE,168,4.0,7.0,100,-99.99,,,-99.99,,2015-05-27 18:21:00,
2015-05-27 11:31:00,60.0,60.0,-100.00,South,189,5.0,8.0,100,-99.99,,,-99.99,,2015-05-27 18:31:00,
2015-05-27 11:42:00,60.0,60.0,-100.00,South,182,5.0,6.0,100,-99.99,,,-99.99,,2015-05-27 18:42:00,
2015-05-27 12:11:00,61.0,61.0,-100.00,South,177,5.0,7.0,100,-99.99,,,-99.99,,2015-05-27 19:11:00,
2015-05-27 12:22:00,62.0,59.0,-100.00,SSE,165,4.0,9.0,91,-99.99,,,-99.99,,2015-05-27 19:22:00,
2015-05-27 12:31:00,63.0,56.0,-100.00,SSW,192,2.0,8.0,79,-99.99,,,-99.99,,2015-05-27 19:31:00,
2015-05-27 12:42:00,63.0,55.0,-100.00,WSW,240,5.0,8.0,75,-99.99,,,-99.99,,2015-05-27 19:42:00,
2015-05-27 12:51:00,63.0,55.0,-100.00,WSW,240,5.0,8.0,75,-99.99,,,-99.99,,2015-05-27 19:51:00,
2015-05-27 13:02:00,64.0,55.0,-100.00,SW,226,7.0,12.0,73,-99.99,,,-99.99,,2015-05-27 20:02:00,
2015-05-27 13:11:00,64.0,54.0,-100.00,SSW,208,6.0,11.0,71,-99.99,,,-99.99,,2015-05-27 20:11:00,
2015-05-27 13:21:00,65.0,55.0,-100.00,SW,220,4.0,11.0,69,-99.99,,,-99.99,,2015-05-27 20:21:00,
2015-05-27 13:31:00,65.0,54.0,-100.00,SW,231,3.0,6.0,67,-99.99,,,-99.99,,2015-05-27 20:31:00,
2015-05-27 13:41:00,66.0,53.0,-100.00,SW,229,4.0,10.0,64,-99.99,,,-99.99,,2015-05-27 20:41:00,
2015-05-27 14:01:00,68.0,54.0,-100.00,SW,233,4.0,12.0,61,-99.99,,,-99.99,,2015-05-27 21:01:00,
2015-05-27 14:11:00,68.0,53.0,-100.00,SW,219,4.0,9.0,59,-99.99,,,-99.99,,2015-05-27 21:11:00,
2015-05-27 14:21:00,68.0,54.0,-100.00,SSW,213,7.0,13.0,60,-99.99,,,-99.99,,2015-05-27 21:21:00,
2015-05-27 14:31:00,69.0,54.0,-100.00,SSW,207,7.0,11.0,58,-99.99,,,-99.99,,2015-05-27 21:31:00,
2015-05-27 14:41:00,69.0,54.0,-100.00,SSW,203,9.0,14.0,59,-99.99,,,-99.99,,2015-05-27 21:41:00,
2015-05-27 15:01:00,69.0,54.0,-100.00,SSW,196,10.0,15.0,59,-99.99,,,-99.99,,2015-05-27 22:01:00,
2015-05-27 15:11:00,68.0,54.0,-100.00,SSW,196,12.0,18.0,60,-99.99,,,-99.99,,2015-05-27 22:11:00,